Home > Time Zones > World Clock > Weather > Japan > Kyoto > Past weeks

Flag Weather past 2 weeks in Kyoto, Japan

Now
63 °F

Passing clouds.


Feels Like: 63 °F
Forecast: 53 / 68 °F
Wind: 5 mph from East

Location: Osaka International Airport

Current Time: Nov 28, 2014 at 6:11:53 PM

Latest Report: Nov 28, 2014 at 5:00 PM


Visibility: N/A

Pressure: 30.09 "Hg

Humidity: 64%

Dew point: 50 °F

Location of KyotoLocation

Historic Weather in Kyoto — Graph

°F

Kyoto temperature yesterday

Maximum temperature yesterday: 63 °F (at 11:00 AM)
Minimum temperature yesterday: 46 °F (at 7:00 AM)
Average temperature yesterday: 57 °F

Past Weeks' High & Low Weather Summary

 TemperatureHumidityPressure
High68 °F (Nov 22, 2:00 PM)100% (Nov 25, 6:00 AM)30.33 "Hg (Nov 25, 6:00 AM)
Low37 °F (Nov 21, 6:00 AM)25% (Nov 21, 2:00 PM)29.83 "Hg (Nov 25, 12:00 PM)
Average55 °F62%30.16 "Hg
* Reported Nov 13 5:00 PM — Nov 28 5:00 PM, Kyoto, Weather by CustomWeather, © 2014

Note: Actual official high and low records may vary slightly from our data, if they occured in-between our weather recording intervals... More about our weather records

Advertising

Kyoto weather history for previous 24 hours

 ConditionsComfort  
Time TempWeatherWind HumidityBarometerVisibility
5:00 PM
Nov 28
63 °FPassing clouds.5 mph64%30.09 "HgN/A
4:00 PM66 °FPartly sunny.3 mph56%30.09 "HgN/A
3:00 PM68 °FBroken clouds.3 mph53%30.12 "HgN/A
2:00 PM66 °FPassing clouds.2 mph49%30.12 "HgN/A
1:00 PM64 °FScattered clouds.3 mph49%30.12 "HgN/A
12:00 PM63 °FScattered clouds.3 mph52%30.15 "HgN/A
11:00 AM61 °FScattered clouds.6 mph52%30.18 "HgN/A
10:00 AM59 °FScattered clouds.8 mph55%30.24 "HgN/A
9:00 AM55 °FScattered clouds.5 mph67%30.27 "HgN/A
8:00 AM50 °FPassing clouds.1 mph76%30.27 "HgN/A
7:00 AM46 °FScattered clouds.3 mph87%30.24 "HgN/A
6:00 AM46 °FPassing clouds.5 mph87%30.24 "HgN/A
5:00 AM45 °FPassing clouds.1 mph87%30.24 "HgN/A
8:00 PM
Nov 27
52 °FPassing clouds.5 mph67%30.24 "HgN/A
7:00 PM54 °FPassing clouds.5 mph63%30.24 "HgN/A
6:00 PM57 °FPassing clouds.5 mph51%30.21 "HgN/A
Weather by CustomWeather, © 2014

See weather overviewHow to use our weather pages